Weather in Nikolayevka

Russia / Kemerovo Oblast     55°52′49″N   87°15′34″E
temp.,
°C
wind,
m/s
gust,
m/s
humid.,
%
clouds,
%
prec.,
mm/h
press.,
hPa
HPBL,
m
27 october, wed
wed2701:00+6wsw9177799 0.2 10041447
04:00+3wsw8156999 0.4 10101383
07:00−1w7136775 0.5 10171313
10:00−1wsw7126448 0.0 10211165
13:00+1w6104479 0.0 10231430
16:00+1wsw5943100 0.0 10241350
19:00−1wsw495098 0.0 1025631
22:00−2sw41053100 0.0 1026639
28 october, thu
thu2801:00−2sw41056100 0.0 1026477
04:00−3sw496157 0.0 1027426
07:00−3sw39685 0.0 1029323
10:00−2sw4105921 0.0 1029539
13:00+1sw5747100 0.0 10281023
16:00+1ssw4744100 0.0 1027926
19:00−1ssw31052100 0.0 1027405
22:00−1ssw4134994 0.0 1026509
29 october, fri
fri2901:00−1ssw51448100 0.0 1025539
04:000ssw51445100 0.0 1024587
07:000ssw61546100 0.0 1023590
10:00+1ssw71657100 0.0 1022717
13:00+3ssw71665100 0.0 1020825
16:00+5sw71461100 0.0 10201043
19:00+4ssw7156678 0.0 1020912
22:00+3sw6156999 0.0 1020901
30 october, sat
sat3001:00+3sw6146699 0.0 1019788
04:00+3ssw61559100 0.0 1018791
07:00+3sw71652100 0.0 1017927
10:00+3sw81652100 0.0 10171273
13:00+1sw81688100 0.6 10171108
16:000wsw7156226 1.4 10211453
19:00−3wsw5116271 1.4 10251152
22:00−4wsw6116380 0.0 10271255
31 october, sun
sun3101:00−4sw61163100 0.0 10281160
04:00−4sw61170100 0.0 10271212
07:00−4sw51063100 0.0 1025961
10:00−3ssw51167100 0.0 1023749
13:00−1ssw51048100 0.0 1020948
16:00−1ssw4847100 0.0 1016874
19:00−3wsw2794100 0.3 1015405
22:00−3w1596100 0.5 1014290